Gulf Shores, AL

1:59 PM CST on February 21, 2017 (GMT -0600)
Edwards

Weather History for KJKA - September, 2012

Change the Weather History Date:

Saturday, September 8, 2012

  Actual Average (KNPA) Record (KNPA)
Temperature  
Mean Temperature 82 °F -  
Max Temperature 89 °F 86 °F 91 °F (1997)
Min Temperature 75 °F 71 °F 61 °F (2011)
Cooling Degree Days 17    
Growing Degree Days 32 (Base 50)    
Moisture  
Dew Point 73 °F    
Average Humidity 78    
Maximum Humidity 94    
Minimum Humidity 52    
Precipitation  
Precipitation 0.00 in - - ()
Sea Level Pressure  
Sea Level Pressure 29.84 in    
Wind  
Wind Speed 5 mph (NNW)    
Max Wind Speed 12 mph    
Max Gust Speed 18 mph    
Visibility 10 miles    
Events Thunderstorm    
Averages and records for this station are not official NWS values.
T = Trace of Precipitation, MM = Missing Value Source: NWS Daily Summary

Daily Weather History Graph

Daily Weather History Graph

Search for Another Location

Airport or City:

Trip Planner

Search our weather history database for the weather conditions in past years. The results will help you decide how hot, cold, wet, or windy it might be!

Date:

Astronomy

Sep. 08, 2012 Rise Set
Actual Time 6:31 AM CDT 7:04 PM CDT
Civil Twilight 6:07 AM CDT 7:28 PM CDT
Nautical Twilight 5:38 AM CDT 7:56 PM CDT
Astronomical Twilight 5:10 AM CDT 8:25 PM CDT
Moon No Moon Rise 1:42 PM CDT (9/8)
Length of Visible Light 13h 20m
Length of Day
12h 32m
Waning Gibbous, 48% of the Moon is Illuminated
Sep 8
Waning Gibbous
Sep 15
New
Sep 22
First Quarter
Sep 29
Full
Oct 8
Last Quarter

Hourly Weather History & Observations

Time (CDT) Temp. Heat Index Dew Point Humidity Pressure Visibility Wind Dir Wind Speed Gust Speed Precip Events Conditions
12:15 AM 78.8 °F - 73.4 °F 83% 29.84 in 10.0 mi SSE 6.9 mph - N/A   Clear
12:35 AM 80.6 °F 85.4 °F 73.4 °F 79% 29.84 in 10.0 mi SSE 5.8 mph - N/A   Clear
12:55 AM 80.6 °F 85.4 °F 73.4 °F 79% 29.85 in 10.0 mi SSE 4.6 mph - N/A   Scattered Clouds
1:15 AM 80.6 °F 85.4 °F 73.4 °F 79% 29.85 in 10.0 mi SSE 5.8 mph - N/A   Scattered Clouds
1:35 AM 80.6 °F 85.4 °F 73.4 °F 79% 29.85 in 10.0 mi Calm Calm - N/A   Scattered Clouds
1:55 AM 78.8 °F - 73.4 °F 83% 29.84 in 10.0 mi Calm Calm - N/A   Scattered Clouds
2:15 AM 78.8 °F - 73.4 °F 83% 29.85 in 10.0 mi Calm Calm - N/A   Scattered Clouds
2:35 AM 77.0 °F - 73.4 °F 89% 29.84 in 10.0 mi North 4.6 mph - N/A   Scattered Clouds
2:55 AM 77.0 °F - 73.4 °F 89% 29.84 in 10.0 mi North 4.6 mph - N/A   Scattered Clouds
3:15 AM 77.0 °F - 73.4 °F 89% 29.83 in 10.0 mi Calm Calm - N/A   Scattered Clouds
3:35 AM 77.0 °F - 73.4 °F 89% 29.83 in 10.0 mi Calm Calm - N/A   Scattered Clouds
3:55 AM 75.2 °F - 73.4 °F 94% 29.82 in 10.0 mi Calm Calm - N/A   Clear
4:15 AM 75.2 °F - 73.4 °F 94% 29.82 in 10.0 mi NNE 5.8 mph - N/A   Scattered Clouds
4:35 AM 75.2 °F - 73.4 °F 94% 29.81 in 10.0 mi NNE 4.6 mph - N/A   Scattered Clouds
4:55 AM 75.2 °F - 73.4 °F 94% 29.81 in 10.0 mi Calm Calm - N/A   Clear
5:15 AM 75.2 °F - 73.4 °F 94% 29.81 in 10.0 mi Calm Calm - N/A   Scattered Clouds
5:35 AM 75.2 °F - 73.4 °F 94% 29.82 in 10.0 mi North 4.6 mph - N/A   Scattered Clouds
5:55 AM 75.2 °F - 73.4 °F 94% 29.83 in 10.0 mi NNE 4.6 mph - N/A   Mostly Cloudy
6:15 AM 75.2 °F - 73.4 °F 94% 29.84 in 10.0 mi North 3.5 mph - N/A   Mostly Cloudy
6:35 AM 75.2 °F - 73.4 °F 94% 29.84 in 10.0 mi NNE 3.5 mph - N/A   Scattered Clouds
6:55 AM 75.2 °F - 73.4 °F 94% 29.85 in 10.0 mi NNE 4.6 mph - N/A   Scattered Clouds
7:15 AM 75.2 °F - 73.4 °F 94% 29.85 in 7.0 mi North 5.8 mph - N/A   Mostly Cloudy
7:35 AM 75.2 °F - 73.4 °F 94% 29.85 in 7.0 mi North 5.8 mph - N/A   Scattered Clouds
8:15 AM 77.0 °F - 73.4 °F 89% 29.86 in 10.0 mi NNE 3.5 mph - N/A   Clear
8:35 AM 78.8 °F - 75.2 °F 89% 29.85 in 10.0 mi NE 4.6 mph - N/A   Clear
8:55 AM 80.6 °F 86.2 °F 75.2 °F 84% 29.85 in 10.0 mi NNE 8.1 mph - N/A   Clear
9:15 AM 82.4 °F 89.5 °F 75.2 °F 79% 29.86 in 10.0 mi NNE 6.9 mph - N/A   Scattered Clouds
9:35 AM 80.6 °F 86.2 °F 75.2 °F 84% 29.86 in 10.0 mi NNE 5.8 mph - N/A   Scattered Clouds
9:55 AM 82.4 °F 89.5 °F 75.2 °F 79% 29.85 in 10.0 mi North 6.9 mph - N/A   Scattered Clouds
10:15 AM 82.4 °F 88.2 °F 73.4 °F 74% 29.85 in 10.0 mi NNE 4.6 mph - N/A   Scattered Clouds
10:35 AM 86.0 °F 93.4 °F 73.4 °F 66% 29.86 in 10.0 mi Calm Calm - N/A   Scattered Clouds
11:35 AM 86.0 °F 93.4 °F 73.4 °F 66% 29.85 in 10.0 mi NW 5.8 mph - N/A   Scattered Clouds
11:55 AM 84.2 °F 94.1 °F 77.0 °F 79% 29.84 in 10.0 mi West 11.5 mph - N/A   Scattered Clouds
12:15 PM 86.0 °F 96.9 °F 77.0 °F 74% 29.84 in 10.0 mi West 9.2 mph - N/A   Scattered Clouds
12:35 PM 86.0 °F 93.4 °F 73.4 °F 66% 29.83 in 10.0 mi WNW 3.5 mph - N/A   Mostly Cloudy
1:15 PM 87.8 °F 95.6 °F 73.4 °F 62% 29.82 in 10.0 mi NNW 6.9 mph - N/A   Scattered Clouds
1:35 PM 89.6 °F 96.2 °F 71.6 °F 55% 29.81 in 10.0 mi NNW 5.8 mph - N/A   Clear
1:55 PM 89.6 °F 98.2 °F 73.4 °F 59% 29.80 in 10.0 mi NW 5.8 mph - N/A   Scattered Clouds
2:15 PM 89.6 °F 98.2 °F 73.4 °F 59% 29.79 in 10.0 mi WNW 6.9 mph - N/A   Mostly Cloudy
2:35 PM 87.8 °F 93.8 °F 71.6 °F 58% 29.77 in 10.0 mi NNW 6.9 mph - N/A   Scattered Clouds
2:55 PM 89.6 °F 96.2 °F 71.6 °F 55% 29.77 in 10.0 mi NNW 6.9 mph - N/A   Scattered Clouds
3:15 PM 89.6 °F 96.2 °F 71.6 °F 55% 29.77 in 10.0 mi NNW 4.6 mph - N/A   Scattered Clouds
3:35 PM 89.6 °F 94.7 °F 69.8 °F 52% 29.77 in 10.0 mi NW 8.1 mph - N/A   Clear
4:35 PM 89.6 °F 98.2 °F 73.4 °F 59% 29.77 in 10.0 mi West 11.5 mph - N/A   Clear
5:15 PM 87.8 °F 97.6 °F 75.2 °F 66% 29.78 in 10.0 mi West 9.2 mph - N/A   Scattered Clouds
5:35 PM 87.8 °F 97.6 °F 75.2 °F 66% 29.79 in 10.0 mi West 11.5 mph - N/A   Clear
5:55 PM 86.0 °F 96.9 °F 77.0 °F 74% 29.79 in 10.0 mi West 9.2 mph - N/A   Clear
6:35 PM 80.6 °F 83.9 °F 69.8 °F 70% 29.82 in 10.0 mi North 10.4 mph 18.4 mph N/A   Overcast
6:55 PM 80.6 °F 83.2 °F 68.0 °F 65% 29.82 in 10.0 mi Calm Calm - N/A   Mostly Cloudy
8:35 PM 78.8 °F - 69.8 °F 74% 29.86 in 10.0 mi NW 6.9 mph - N/A   Scattered Clouds
8:55 PM 78.8 °F - 69.8 °F 74% 29.87 in 10.0 mi North 3.5 mph - N/A Thunderstorm Scattered Clouds
9:15 PM 78.8 °F - 69.8 °F 74% 29.88 in 10.0 mi NNW 4.6 mph - N/A   Scattered Clouds
9:35 PM 77.0 °F - 71.6 °F 83% 29.89 in 10.0 mi NNW 4.6 mph - N/A Thunderstorm Thunderstorm
9:55 PM 77.0 °F - 71.6 °F 83% 29.89 in 10.0 mi NNW 3.5 mph - N/A   Clear
10:15 PM 77.0 °F - 71.6 °F 83% 29.90 in 10.0 mi NNW 3.5 mph - N/A   Scattered Clouds
10:35 PM 77.0 °F - 71.6 °F 83% 29.90 in 10.0 mi Calm Calm - N/A   Mostly Cloudy
10:55 PM 77.0 °F - 69.8 °F 78% 29.89 in 10.0 mi Calm Calm - N/A   Scattered Clouds
11:15 PM 77.0 °F - 69.8 °F 78% 29.89 in 10.0 mi North 5.8 mph - N/A   Scattered Clouds
11:55 PM 77.0 °F - 69.8 °F 78% 29.89 in 10.0 mi North 6.9 mph - N/A   Scattered Clouds